Location: Paralde Spring
(38.5794°N, 119.0140°W)
Time: 22:21:43
(UTC+00:00)

OE (NEXTSAT) - Pass Details

Date: 18 September 2020
Orbit: 429 x 439 km, 46.0° (Epoch: 20 October)

Event Time Altitude Azimuth Distance (km) Brightness Sun altitude
Exits shadow 12:04:34 72° 226° (SW) 453 4.1 -19.3°
Maximum altitude 12:04:38 73° 212° (SSW) 451 4.1 -19.3°
Drops below altitude 10° 12:08:04 10° 126° (SE) 1,522 7.5 -18.6°
Sets 12:10:11 0° 125° (SE) 2,388 8.6 -18.2°
